STARLINK-5336, 57138

Orbit data source: Space-Track

STARLINK-5336, 57138 is a payload satellite owned by SpaceX/Seattle (US) in LEO that was launched on Fri, 23 Jun 2023 UTC via an FALCON 9 launch vehicle from the Air Force Eastern Test Range (AFETR). Payload-class satellites include a variety of spacecraft equipped with specific instruments for various scientific and technological missions. These include communications satellites like Starlink; space stations such as the ISS; scientific satellites like the Hubble; Earth observation satellites from companies like Planet Labs, Umbra, and HawkEye 360; GPS; miniature CubeSats for education and research; and military/defense satellites.

Loading next visibility...
Identifier
57138, 2023-090AP
Orbit
LEO
Last TLE update
13 hours ago
Origin
Manufacturer
SpaceX/Seattle
Mission
Operational Commercial Communications
Bus & Motor
STARLINK, Unknown motor
Mass
305 kg wet, ~290 kg dry
Launch date (UTC)
2023-06-23 (2 years ago)
Launch vehicle
FALCON 9
Launch site
Air Force Eastern Test Range (AFETR)
Object type
Payload
Rocket body
Debris
Shape & HBR
Box + 1 Pan, 9 m
Radar Cross Section
11.087 m², Large (>1 m²)

Expand to show TLE details & history

TLE from 13 hours ago
0 STARLINK-5336
1 57138U 23090AP  25187.95591099  .00000123  00000-0  24168-4 0  9999
2 57138  43.0029 157.3086 0001128 272.0370  88.0343 15.02536266112452
Epoch: 2025-07-06T22:56Z
TLE epoch observation values (Epoch: 2025-07-06T22:56:30.709Z)
Latitude
-0.00003°
Longitude
-111.99156°
Altitude
558.83 km
Speed
7.584 km/s
True Right ascension
10h 29m 14s
True Declination
0° 00' 00"
Sunlit
Object was in daylight at epoch
Visualization orbit readout
Latitude
-10.467°
Longitude
-126.22913°
Altitude
560.528 km
Speed
7.582 km/s
Apparent Right ascension
10h 25m 36s
Apparent Declination
-25° 16' 02"
Sunlit
Object is in daylight
Visualization observer readout
Local Sidereal Time
23:40:33
Azimuth
52.592° ENE
Elevation
-68.551°
Doppler factor
1
Orbital elements
Apogee altitude
561.785 km
Perigee altitude
560.219 km
Semi-major axis
6,939.139 km
Eccentricity
0.00011
Inclination
43.0029°
RAAN
157.3086°
Arg. of periapsis
272.037°
True anomaly
Unknown
Mean anomaly
88.0343°
Eccentric anomaly
Unknown
Mean motion
3.75478 °/min
Orbital period
95.88 mins
BSTAR
0.000024168
Loading maneuver chart data...
Loading SW <> Apogee altitude chart data...
Loading historical data...
Loading historical data...
Loading historical data...
Loading historical data...
Loading historical data...
Loading historical data...
Loading historical data...

STARLINK-5336 Visibility forecast

Observer location: undefined°, undefined°

Span
Click to sort rows by Start time (UTC) header in descending order
Start Az.
Max El. time (UTC)
Max El. Az.
Max El.
End time (UTC)
End Az.
6 mins2025-07-08 00:39:15.056Z204.12° SW2025-07-08 00:42:15.056Z153.651° SSE25.648°2025-07-08 00:45:15.056Z93.881° ESE
6 mins2025-07-08 02:20:15.056Z255.555° W2025-07-08 02:23:15.056Z48.788° ENE43.946°2025-07-08 02:26:15.056Z71.005° E
6 mins2025-07-08 04:01:15.056Z289.299° WNW2025-07-08 04:04:15.056Z26.53° NE38.372°2025-07-08 04:07:15.056Z77.44° E
6 mins2025-07-08 05:42:15.056Z287.688° WNW2025-07-08 05:44:15.056Z283.558° WNW43.289°2025-07-08 05:48:15.056Z110.366° ESE
5 mins2025-07-08 07:23:15.056Z251.666° W2025-07-08 07:25:15.056Z210.309° SW22.441°2025-07-08 07:28:15.056Z162.027° S
|